Location: ???????
(56.2167°N, 38.0500°E)
Time: 13:12:02
(UTC+00:00)

NOSS 0 Rocket - Pass Details

Date: 19 May 2025
Orbit: 933 x 954 km, 70.0° (Epoch: 20 June)

Event Time Altitude Azimuth Distance (km) Brightness Sun altitude
Rises 23:10:53 0° 322° (NW) 3,645 7.4 -10.5°
Reaches altitude 10° 23:13:30 10° 318° (NW) 2,695 6.6 -10.4°
Maximum altitude 23:19:29 50° 245° (WSW) 1,204 4.2 -10.0°
Drops below altitude 10° 23:25:26 10° 172° (S) 2,671 5.8 -9.6°
Enters shadow 23:27:25 - 168° (SSE) 3,387 6.4 -9.5°
